owner,sensor,date,latitude,longitude,vertical_datum,wind_speed,wind_to_direction,wind_speed_of_gust,qcFlag 
COMPS,ioos:station:USF.COMPS:ARP:1,2017-01-01T00:00:00Z,28.4330,-82.6670,10.0,0.84,77.76,1.07,'1111122,1111122,1111122' 
COMPS,ioos:station:USF.COMPS:ARP:1,2017-01-01T00:06:00Z,28.4330,-82.6670,10.0,0.87,76.84,1.17,'1111122,1111122,1111122' 
COMPS,ioos:station:USF.COMPS:ARP:1,2017-01-01T00:12:00Z,28.4330,-82.6670,10.0,1.0,72.69,1.17,'1111122,1111122,1111122' 
COMPS,ioos:station:USF.COMPS:ARP:1,2017-01-01T00:18:00Z,28.4330,-82.6670,10.0,1.03,80.17,1.17,'1111122,1111122,1111122' 
COMPS,ioos:station:USF.COMPS:ARP:1,2017-01-01T00:24:00Z,28.4330,-82.6670,10.0,0.84,79.22,1.07,'1111122,1111122,1111122' 
COMPS,ioos:station:USF.COMPS:ARP:1,2017-01-01T00:30:00Z,28.4330,-82.6670,10.0,0.87,81.41,1.07,'1111122,1111122,1111122' 
COMPS,ioos:station:USF.COMPS:ARP:1,2017-01-01T00:36:00Z,28.4330,-82.6670,10.0,0.75,75.27,0.97,'1111122,1111122,1111122' 
COMPS,ioos:station:USF.COMPS:ARP:1,2017-01-01T00:42:00Z,28.4330,-82.6670,10.0,0.84,88.68,1.07,'1111122,1111122,1111122' 
COMPS,ioos:station:USF.COMPS:ARP:1,2017-01-01T00:48:00Z,28.4330,-82.6670,10.0,0.76,98.91,0.97,'1111122,1111122,1111122' 
COMPS,ioos:station:USF.COMPS:ARP:1,2017-01-01T00:54:00Z,28.4330,-82.6670,10.0,0.47,92.01,1.07,'1111122,1111122,1111122' 
COMPS,ioos:station:USF.COMPS:ARP:1,2017-01-01T01:00:00Z,28.4330,-82.6670,10.0,0.58,114.13,0.88,'1111122,1111122,1111122' 
COMPS,ioos:station:USF.COMPS:ARP:1,2017-01-01T01:06:00Z,28.4330,-82.6670,10.0,0.9,118.12,1.56,'1111122,1111122,1111122' 
COMPS,ioos:station:USF.COMPS:ARP:1,2017-01-01T01:12:00Z,28.4330,-82.6670,10.0,0.83,88.38,0.97,'1111122,1111122,1111122' 
COMPS,ioos:station:USF.COMPS:ARP:1,2017-01-01T01:18:00Z,28.4330,-82.6670,10.0,0.95,98.16,1.37,'1111122,1111122,1111122' 
COMPS,ioos:station:USF.COMPS:ARP:1,2017-01-01T01:24:00Z,28.4330,-82.6670,10.0,1.17,99.43,1.37,'1111122,1111122,1111122' 
COMPS,ioos:station:USF.COMPS:ARP:1,2017-01-01T01:30:00Z,28.4330,-82.6670,10.0,1.06,112.3,1.46,'1111122,1111122,1111122' 
COMPS,ioos:station:USF.COMPS:ARP:1,2017-01-01T01:36:00Z,28.4330,-82.6670,10.0,1.09,101.29,1.27,'1111122,1111122,1111122' 
COMPS,ioos:station:USF.COMPS:ARP:1,2017-01-01T01:42:00Z,28.4330,-82.6670,10.0,1.57,109.18,2.25,'1111122,1111122,1111122' 
COMPS,ioos:station:USF.COMPS:ARP:1,2017-01-01T01:48:00Z,28.4330,-82.6670,10.0,1.6,104.88,1.95,'1111122,1111122,1111122' 
COMPS,ioos:station:USF.COMPS:ARP:1,2017-01-01T01:54:00Z,28.4330,-82.6670,10.0,1.41,103.69,2.05,'1111122,1111122,1111122' 
COMPS,ioos:station:USF.COMPS:ARP:1,2017-01-01T02:00:00Z,28.4330,-82.6670,10.0,1.89,100.83,2.84,'1111122,1111122,1111122' 
COMPS,ioos:station:USF.COMPS:ARP:1,2017-01-01T02:06:00Z,28.4330,-82.6670,10.0,1.7,99.01,2.45,'1111122,1111122,1111122' 
COMPS,ioos:station:USF.COMPS:ARP:1,2017-01-01T02:12:00Z,28.4330,-82.6670,10.0,1.58,95.06,2.05,'1111122,1111122,1111122' 
COMPS,ioos:station:USF.COMPS:ARP:1,2017-01-01T02:18:00Z,28.4330,-82.6670,10.0,1.63,98.34,2.15,'1111122,1111122,1111122' 
COMPS,ioos:station:USF.COMPS:ARP:1,2017-01-01T02:24:00Z,28.4330,-82.6670,10.0,1.83,98.31,2.25,'1111122,1111122,1111122' 
COMPS,ioos:station:USF.COMPS:ARP:1,2017-01-01T02:30:00Z,28.4330,-82.6670,10.0,1.95,95.66,2.45,'1111122,1111122,1111122' 
COMPS,ioos:station:USF.COMPS:ARP:1,2017-01-01T02:36:00Z,28.4330,-82.6670,10.0,1.84,95.46,2.35,'1111122,1111122,1111122' 
COMPS,ioos:station:USF.COMPS:ARP:1,2017-01-01T02:42:00Z,28.4330,-82.6670,10.0,1.89,87.43,2.54,'1111122,1111122,1111122' 
COMPS,ioos:station:USF.COMPS:ARP:1,2017-01-01T02:48:00Z,28.4330,-82.6670,10.0,1.93,91.71,2.64,'1111122,1111122,1111122' 
COMPS,ioos:station:USF.COMPS:ARP:1,2017-01-01T02:54:00Z,28.4330,-82.6670,10.0,1.92,92.73,2.84,'1111122,1111122,1111122' 
COMPS,ioos:station:USF.COMPS:ARP:1,2017-01-01T03:00:00Z,28.4330,-82.6670,10.0,1.85,90.41,2.45,'1111122,1111122,1111122' 
COMPS,ioos:station:USF.COMPS:ARP:1,2017-01-01T03:06:00Z,28.4330,-82.6670,10.0,1.66,92.59,2.35,'1111122,1111122,1111122' 
COMPS,ioos:station:USF.COMPS:ARP:1,2017-01-01T03:12:00Z,28.4330,-82.6670,10.0,1.39,92.92,2.25,'1111122,1111122,1111122' 
COMPS,ioos:station:USF.COMPS:ARP:1,2017-01-01T03:18:00Z,28.4330,-82.6670,10.0,1.5,87.86,2.15,'1111122,1111122,1111122' 
COMPS,ioos:station:USF.COMPS:ARP:1,2017-01-01T03:24:00Z,28.4330,-82.6670,10.0,1.81,89.97,2.74,'1111122,1111122,1111122' 
COMPS,ioos:station:USF.COMPS:ARP:1,2017-01-01T03:30:00Z,28.4330,-82.6670,10.0,1.51,92.14,2.35,'1111122,1111122,1111122' 
COMPS,ioos:station:USF.COMPS:ARP:1,2017-01-01T03:36:00Z,28.4330,-82.6670,10.0,1.5,91.0,2.05,'1111122,1111122,1111122' 
COMPS,ioos:station:USF.COMPS:ARP:1,2017-01-01T03:42:00Z,28.4330,-82.6670,10.0,1.39,97.63,1.76,'1111122,1111122,1111122' 
COMPS,ioos:station:USF.COMPS:ARP:1,2017-01-01T03:48:00Z,28.4330,-82.6670,10.0,1.42,96.52,1.95,'1111122,1111122,1111122' 
COMPS,ioos:station:USF.COMPS:ARP:1,2017-01-01T03:54:00Z,28.4330,-82.6670,10.0,1.56,96.35,1.95,'1111122,1111122,1111122' 
COMPS,ioos:station:USF.COMPS:ARP:1,2017-01-01T04:00:00Z,28.4330,-82.6670,10.0,1.35,101.63,1.66,'1111122,1111122,1111122' 
COMPS,ioos:station:USF.COMPS:ARP:1,2017-01-01T04:06:00Z,28.4330,-82.6670,10.0,1.68,97.43,2.05,'1111122,1111122,1111122' 
COMPS,ioos:station:USF.COMPS:ARP:1,2017-01-01T04:12:00Z,28.4330,-82.6670,10.0,1.8,94.5,2.25,'1111122,1111122,1111122' 
COMPS,ioos:station:USF.COMPS:ARP:1,2017-01-01T04:18:00Z,28.4330,-82.6670,10.0,1.94,96.57,2.35,'1111122,1111122,1111122' 
COMPS,ioos:station:USF.COMPS:ARP:1,2017-01-01T04:24:00Z,28.4330,-82.6670,10.0,1.83,97.0,2.15,'1111122,1111122,1111122' 
COMPS,ioos:station:USF.COMPS:ARP:1,2017-01-01T04:30:00Z,28.4330,-82.6670,10.0,1.67,97.5,2.15,'1111122,1111122,1111122' 
COMPS,ioos:station:USF.COMPS:ARP:1,2017-01-01T04:36:00Z,28.4330,-82.6670,10.0,1.85,91.48,2.64,'1111122,1111122,1111122' 
COMPS,ioos:station:USF.COMPS:ARP:1,2017-01-01T04:42:00Z,28.4330,-82.6670,10.0,1.78,95.02,2.25,'1111122,1111122,1111122' 
COMPS,ioos:station:USF.COMPS:ARP:1,2017-01-01T04:48:00Z,28.4330,-82.6670,10.0,1.63,90.97,2.35,'1111122,1111122,1111122' 
COMPS,ioos:station:USF.COMPS:ARP:1,2017-01-01T04:54:00Z,28.4330,-82.6670,10.0,1.51,91.98,1.95,'1111122,1111122,1111122' 
COMPS,ioos:station:USF.COMPS:ARP:1,2017-01-01T05:00:00Z,28.4330,-82.6670,10.0,1.6,92.35,2.25,'1111122,1111122,1111122' 
COMPS,ioos:station:USF.COMPS:ARP:1,2017-01-01T05:06:00Z,28.4330,-82.6670,10.0,1.44,93.74,2.05,'1111122,1111122,1111122' 
COMPS,ioos:station:USF.COMPS:ARP:1,2017-01-01T05:12:00Z,28.4330,-82.6670,10.0,1.49,96.27,2.15,'1111122,1111122,1111122' 
COMPS,ioos:station:USF.COMPS:ARP:1,2017-01-01T05:18:00Z,28.4330,-82.6670,10.0,1.61,99.28,2.45,'1111122,1111122,1111122' 
COMPS,ioos:station:USF.COMPS:ARP:1,2017-01-01T05:24:00Z,28.4330,-82.6670,10.0,1.79,101.06,2.84,'1111122,1111122,1111122' 
COMPS,ioos:station:USF.COMPS:ARP:1,2017-01-01T05:30:00Z,28.4330,-82.6670,10.0,1.75,99.56,2.64,'1111122,1111122,1111122' 
COMPS,ioos:station:USF.COMPS:ARP:1,2017-01-01T05:36:00Z,28.4330,-82.6670,10.0,1.84,99.63,2.84,'1111122,1111122,1111122' 
COMPS,ioos:station:USF.COMPS:ARP:1,2017-01-01T05:42:00Z,28.4330,-82.6670,10.0,1.46,98.96,2.25,'1111122,1111122,1111122' 
COMPS,ioos:station:USF.COMPS:ARP:1,2017-01-01T05:48:00Z,28.4330,-82.6670,10.0,1.42,105.56,2.54,'1111122,1111122,1111122' 
COMPS,ioos:station:USF.COMPS:ARP:1,2017-01-01T05:54:00Z,28.4330,-82.6670,10.0,0.96,134.34,1.86,'1111122,1111122,1111122' 
COMPS,ioos:station:USF.COMPS:ARP:1,2017-01-01T06:00:00Z,28.4330,-82.6670,10.0,0.73,224.62,1.17,'1111122,1111122,1111122' 
COMPS,ioos:station:USF.COMPS:ARP:1,2017-01-01T06:06:00Z,28.4330,-82.6670,10.0,0.35,214.6,0.88,'1111122,1111122,1111122' 
COMPS,ioos:station:USF.COMPS:ARP:1,2017-01-01T06:12:00Z,28.4330,-82.6670,10.0,0.21,168.78,0.78,'1111122,1111122,1111122' 
COMPS,ioos:station:USF.COMPS:ARP:1,2017-01-01T06:18:00Z,28.4330,-82.6670,10.0,0.18,168.65,0.58,'1111122,1111122,1111122' 
COMPS,ioos:station:USF.COMPS:ARP:1,2017-01-01T06:24:00Z,28.4330,-82.6670,10.0,0.34,155.12,0.68,'1111122,1111122,1111122' 
COMPS,ioos:station:USF.COMPS:ARP:1,2017-01-01T06:30:00Z,28.4330,-82.6670,10.0,0.4,131.77,0.68,'1111122,1111122,1111122' 
COMPS,ioos:station:USF.COMPS:ARP:1,2017-01-01T06:36:00Z,28.4330,-82.6670,10.0,0.65,90.41,0.97,'1111122,1111122,1111122' 
COMPS,ioos:station:USF.COMPS:ARP:1,2017-01-01T06:42:00Z,28.4330,-82.6670,10.0,1.14,95.06,1.76,'1111122,1111122,1111122' 
COMPS,ioos:station:USF.COMPS:ARP:1,2017-01-01T06:48:00Z,28.4330,-82.6670,10.0,1.39,99.34,1.95,'1111122,1111122,1111122' 
COMPS,ioos:station:USF.COMPS:ARP:1,2017-01-01T06:54:00Z,28.4330,-82.6670,10.0,0.95,101.84,1.46,'1111122,1111122,1111122' 
COMPS,ioos:station:USF.COMPS:ARP:1,2017-01-01T07:00:00Z,28.4330,-82.6670,10.0,1.11,110.19,1.66,'1111122,1111122,1111122' 
COMPS,ioos:station:USF.COMPS:ARP:1,2017-01-01T07:06:00Z,28.4330,-82.6670,10.0,1.42,100.62,2.35,'1111122,1111122,1111122' 
COMPS,ioos:station:USF.COMPS:ARP:1,2017-01-01T07:12:00Z,28.4330,-82.6670,10.0,1.6,107.4,2.45,'1111122,1111122,1111122' 
COMPS,ioos:station:USF.COMPS:ARP:1,2017-01-01T07:18:00Z,28.4330,-82.6670,10.0,1.86,108.17,2.45,'1111122,1111122,1111122' 
COMPS,ioos:station:USF.COMPS:ARP:1,2017-01-01T07:24:00Z,28.4330,-82.6670,10.0,2.02,114.18,2.93,'1111122,1111122,1111122' 
COMPS,ioos:station:USF.COMPS:ARP:1,2017-01-01T07:30:00Z,28.4330,-82.6670,10.0,1.9,108.63,2.64,'1111122,1111122,1111122' 
COMPS,ioos:station:USF.COMPS:ARP:1,2017-01-01T07:36:00Z,28.4330,-82.6670,10.0,2.13,107.89,3.13,'1111122,1111122,1111122' 
COMPS,ioos:station:USF.COMPS:ARP:1,2017-01-01T07:42:00Z,28.4330,-82.6670,10.0,2.04,107.57,3.23,'1111122,1111122,1111122' 
COMPS,ioos:station:USF.COMPS:ARP:1,2017-01-01T07:48:00Z,28.4330,-82.6670,10.0,1.91,115.62,2.64,'1111122,1111122,1111122' 
COMPS,ioos:station:USF.COMPS:ARP:1,2017-01-01T07:54:00Z,28.4330,-82.6670,10.0,1.74,119.54,2.74,'1111122,1111122,1111122' 
COMPS,ioos:station:USF.COMPS:ARP:1,2017-01-01T08:00:00Z,28.4330,-82.6670,10.0,1.72,114.64,2.64,'1111122,1111122,1111122' 
COMPS,ioos:station:USF.COMPS:ARP:1,2017-01-01T08:06:00Z,28.4330,-82.6670,10.0,1.73,119.88,3.42,'1111122,1111122,1111122' 
COMPS,ioos:station:USF.COMPS:ARP:1,2017-01-01T08:12:00Z,28.4330,-82.6670,10.0,1.61,121.73,2.84,'1111122,1111122,1111122' 
COMPS,ioos:station:USF.COMPS:ARP:1,2017-01-01T08:18:00Z,28.4330,-82.6670,10.0,1.5,122.81,2.35,'1111122,1111122,1111122' 
COMPS,ioos:station:USF.COMPS:ARP:1,2017-01-01T08:24:00Z,28.4330,-82.6670,10.0,1.4,122.1,2.54,'1111122,1111122,1111122' 
COMPS,ioos:station:USF.COMPS:ARP:1,2017-01-01T08:30:00Z,28.4330,-82.6670,10.0,1.66,123.12,2.84,'1111122,1111122,1111122' 
COMPS,ioos:station:USF.COMPS:ARP:1,2017-01-01T08:36:00Z,28.4330,-82.6670,10.0,1.61,118.18,2.45,'1111122,1111122,1111122' 
COMPS,ioos:station:USF.COMPS:ARP:1,2017-01-01T08:42:00Z,28.4330,-82.6670,10.0,1.82,112.02,2.64,'1111122,1111122,1111122' 
COMPS,ioos:station:USF.COMPS:ARP:1,2017-01-01T08:48:00Z,28.4330,-82.6670,10.0,1.95,112.17,3.52,'1111122,1111122,1111122' 
COMPS,ioos:station:USF.COMPS:ARP:1,2017-01-01T08:54:00Z,28.4330,-82.6670,10.0,2.03,111.89,3.13,'1111122,1111122,1111122' 
COMPS,ioos:station:USF.COMPS:ARP:1,2017-01-01T09:00:00Z,28.4330,-82.6670,10.0,2.12,112.88,3.13,'1111122,1111122,1111122' 
COMPS,ioos:station:USF.COMPS:ARP:1,2017-01-01T09:06:00Z,28.4330,-82.6670,10.0,2.13,108.95,3.13,'1111122,1111122,1111122' 
COMPS,ioos:station:USF.COMPS:ARP:1,2017-01-01T09:12:00Z,28.4330,-82.6670,10.0,2.14,101.69,3.23,'1111122,1111122,1111122' 
COMPS,ioos:station:USF.COMPS:ARP:1,2017-01-01T09:18:00Z,28.4330,-82.6670,10.0,2.09,114.34,3.33,'1111122,1111122,1111122' 
COMPS,ioos:station:USF.COMPS:ARP:1,2017-01-01T09:24:00Z,28.4330,-82.6670,10.0,2.01,113.14,3.33,'1111122,1111122,1111122' 
COMPS,ioos:station:USF.COMPS:ARP:1,2017-01-01T09:30:00Z,28.4330,-82.6670,10.0,1.75,111.74,2.64,'1111122,1111122,1111122' 
COMPS,ioos:station:USF.COMPS:ARP:1,2017-01-01T09:36:00Z,28.4330,-82.6670,10.0,2.1,104.44,3.33,'1111122,1111122,1111122' 
COMPS,ioos:station:USF.COMPS:ARP:1,2017-01-01T09:42:00Z,28.4330,-82.6670,10.0,1.79,116.93,2.74,'1111122,1111122,1111122' 
COMPS,ioos:station:USF.COMPS:ARP:1,2017-01-01T09:48:00Z,28.4330,-82.6670,10.0,1.88,112.84,2.74,'1111122,1111122,1111122' 
COMPS,ioos:station:USF.COMPS:ARP:1,2017-01-01T09:54:00Z,28.4330,-82.6670,10.0,1.79,116.43,2.84,'1111122,1111122,1111122' 
COMPS,ioos:station:USF.COMPS:ARP:1,2017-01-01T10:00:00Z,28.4330,-82.6670,10.0,1.76,116.47,2.54,'1111122,1111122,1111122' 
COMPS,ioos:station:USF.COMPS:ARP:1,2017-01-01T10:06:00Z,28.4330,-82.6670,10.0,1.67,119.83,2.84,'1111122,1111122,1111122' 
COMPS,ioos:station:USF.COMPS:ARP:1,2017-01-01T10:12:00Z,28.4330,-82.6670,10.0,1.86,121.04,3.42,'1111122,1111122,1111122' 
COMPS,ioos:station:USF.COMPS:ARP:1,2017-01-01T10:18:00Z,28.4330,-82.6670,10.0,1.83,109.87,3.52,'1111122,1111122,1111122' 
COMPS,ioos:station:USF.COMPS:ARP:1,2017-01-01T10:24:00Z,28.4330,-82.6670,10.0,1.99,115.88,3.52,'1111122,1111122,1111122' 
COMPS,ioos:station:USF.COMPS:ARP:1,2017-01-01T10:30:00Z,28.4330,-82.6670,10.0,2.19,114.85,3.72,'1111122,1111122,1111122' 
COMPS,ioos:station:USF.COMPS:ARP:1,2017-01-01T10:36:00Z,28.4330,-82.6670,10.0,1.92,119.11,3.13,'1111122,1111122,1111122' 
COMPS,ioos:station:USF.COMPS:ARP:1,2017-01-01T10:42:00Z,28.4330,-82.6670,10.0,1.9,114.89,3.52,'1111122,1111122,1111122' 
COMPS,ioos:station:USF.COMPS:ARP:1,2017-01-01T10:48:00Z,28.4330,-82.6670,10.0,2.23,111.81,3.23,'1111122,1111122,1111122' 
COMPS,ioos:station:USF.COMPS:ARP:1,2017-01-01T10:54:00Z,28.4330,-82.6670,10.0,2.12,110.47,3.03,'1111122,1111122,1111122' 
COMPS,ioos:station:USF.COMPS:ARP:1,2017-01-01T11:00:00Z,28.4330,-82.6670,10.0,2.25,107.28,3.33,'1111122,1111122,1111122' 
COMPS,ioos:station:USF.COMPS:ARP:1,2017-01-01T11:06:00Z,28.4330,-82.6670,10.0,2.29,109.11,4.01,'1111122,1111122,1111122' 
COMPS,ioos:station:USF.COMPS:ARP:1,2017-01-01T11:12:00Z,28.4330,-82.6670,10.0,2.47,107.66,3.72,'1111122,1111122,1111122' 
COMPS,ioos:station:USF.COMPS:ARP:1,2017-01-01T11:18:00Z,28.4330,-82.6670,10.0,1.94,107.31,2.93,'1111122,1111122,1111122' 
COMPS,ioos:station:USF.COMPS:ARP:1,2017-01-01T11:24:00Z,28.4330,-82.6670,10.0,2.21,105.2,3.03,'1111122,1111122,1111122' 
COMPS,ioos:station:USF.COMPS:ARP:1,2017-01-01T11:30:00Z,28.4330,-82.6670,10.0,2.28,111.28,3.13,'1111122,1111122,1111122' 
COMPS,ioos:station:USF.COMPS:ARP:1,2017-01-01T11:36:00Z,28.4330,-82.6670,10.0,2.3,108.79,3.52,'1111122,1111122,1111122' 
COMPS,ioos:station:USF.COMPS:ARP:1,2017-01-01T11:42:00Z,28.4330,-82.6670,10.0,2.29,110.4,3.91,'1111122,1111122,1111122' 
COMPS,ioos:station:USF.COMPS:ARP:1,2017-01-01T11:48:00Z,28.4330,-82.6670,10.0,2.32,107.98,3.33,'1111122,1111122,1111122' 
COMPS,ioos:station:USF.COMPS:ARP:1,2017-01-01T11:54:00Z,28.4330,-82.6670,10.0,1.99,111.72,3.33,'1111122,1111122,1111122' 
COMPS,ioos:station:USF.COMPS:ARP:1,2017-01-01T12:00:00Z,28.4330,-82.6670,10.0,2.27,104.52,3.33,'1111122,1111122,1111122' 
COMPS,ioos:station:USF.COMPS:ARP:1,2017-01-01T12:06:00Z,28.4330,-82.6670,10.0,2.18,97.84,3.13,'1111122,1111122,1111122' 
COMPS,ioos:station:USF.COMPS:ARP:1,2017-01-01T12:12:00Z,28.4330,-82.6670,10.0,2.64,102.63,3.72,'1111122,1111122,1111122' 
COMPS,ioos:station:USF.COMPS:ARP:1,2017-01-01T12:18:00Z,28.4330,-82.6670,10.0,2.5,104.03,3.33,'1111122,1111122,1111122' 
COMPS,ioos:station:USF.COMPS:ARP:1,2017-01-01T12:24:00Z,28.4330,-82.6670,10.0,2.51,106.71,3.52,'1111122,1111122,1111122' 
COMPS,ioos:station:USF.COMPS:ARP:1,2017-01-01T12:30:00Z,28.4330,-82.6670,10.0,2.44,111.56,3.91,'1111122,1111122,1111122' 
COMPS,ioos:station:USF.COMPS:ARP:1,2017-01-01T12:36:00Z,28.4330,-82.6670,10.0,2.38,108.15,3.33,'1111122,1111122,1111122' 
COMPS,ioos:station:USF.COMPS:ARP:1,2017-01-01T12:42:00Z,28.4330,-82.6670,10.0,2.38,105.35,3.33,'1111122,1111122,1111122' 
COMPS,ioos:station:USF.COMPS:ARP:1,2017-01-01T12:48:00Z,28.4330,-82.6670,10.0,2.47,106.48,3.62,'1111122,1111122,1111122' 
COMPS,ioos:station:USF.COMPS:ARP:1,2017-01-01T12:54:00Z,28.4330,-82.6670,10.0,2.37,104.02,3.91,'1111122,1111122,1111122' 
COMPS,ioos:station:USF.COMPS:ARP:1,2017-01-01T13:00:00Z,28.4330,-82.6670,10.0,2.17,94.72,2.93,'1111122,1111122,1111122' 
COMPS,ioos:station:USF.COMPS:ARP:1,2017-01-01T13:06:00Z,28.4330,-82.6670,10.0,2.16,100.12,3.23,'1111122,1111122,1111122' 
COMPS,ioos:station:USF.COMPS:ARP:1,2017-01-01T13:12:00Z,28.4330,-82.6670,10.0,2.0,103.23,2.74,'1111122,1111122,1111122' 
COMPS,ioos:station:USF.COMPS:ARP:1,2017-01-01T13:18:00Z,28.4330,-82.6670,10.0,2.07,106.99,3.03,'1111122,1111122,1111122' 
COMPS,ioos:station:USF.COMPS:ARP:1,2017-01-01T13:24:00Z,28.4330,-82.6670,10.0,2.06,106.05,3.03,'1111122,1111122,1111122' 
COMPS,ioos:station:USF.COMPS:ARP:1,2017-01-01T13:30:00Z,28.4330,-82.6670,10.0,2.13,110.13,3.52,'1111122,1111122,1111122' 
COMPS,ioos:station:USF.COMPS:ARP:1,2017-01-01T13:36:00Z,28.4330,-82.6670,10.0,2.05,110.85,3.03,'1111122,1111122,1111122' 
COMPS,ioos:station:USF.COMPS:ARP:1,2017-01-01T13:42:00Z,28.4330,-82.6670,10.0,1.63,110.15,2.54,'1111122,1111122,1111122' 
COMPS,ioos:station:USF.COMPS:ARP:1,2017-01-01T13:48:00Z,28.4330,-82.6670,10.0,1.6,105.84,2.54,'1111122,1111122,1111122' 
COMPS,ioos:station:USF.COMPS:ARP:1,2017-01-01T13:54:00Z,28.4330,-82.6670,10.0,1.5,112.99,2.25,'1111122,1111122,1111122' 
COMPS,ioos:station:USF.COMPS:ARP:1,2017-01-01T14:00:00Z,28.4330,-82.6670,10.0,1.64,112.86,2.54,'1111122,1111122,1111122' 
COMPS,ioos:station:USF.COMPS:ARP:1,2017-01-01T14:06:00Z,28.4330,-82.6670,10.0,1.55,106.35,2.54,'1111122,1111122,1111122' 
COMPS,ioos:station:USF.COMPS:ARP:1,2017-01-01T14:12:00Z,28.4330,-82.6670,10.0,1.63,112.77,3.72,'1111122,1111122,1111122' 
COMPS,ioos:station:USF.COMPS:ARP:1,2017-01-01T14:18:00Z,28.4330,-82.6670,10.0,1.88,109.29,3.52,'1111122,1111122,1111122' 
COMPS,ioos:station:USF.COMPS:ARP:1,2017-01-01T14:24:00Z,28.4330,-82.6670,10.0,1.34,113.06,2.15,'1111122,1111122,1111122' 
COMPS,ioos:station:USF.COMPS:ARP:1,2017-01-01T14:30:00Z,28.4330,-82.6670,10.0,2.12,129.16,4.11,'1111122,1111122,1111122' 
COMPS,ioos:station:USF.COMPS:ARP:1,2017-01-01T14:36:00Z,28.4330,-82.6670,10.0,1.74,130.4,3.72,'1111122,1111122,1111122' 
COMPS,ioos:station:USF.COMPS:ARP:1,2017-01-01T14:42:00Z,28.4330,-82.6670,10.0,1.64,128.64,3.72,'1111122,1111122,1111122' 
COMPS,ioos:station:USF.COMPS:ARP:1,2017-01-01T14:48:00Z,28.4330,-82.6670,10.0,2.29,131.88,5.39,'1111122,1111122,1111122' 
COMPS,ioos:station:USF.COMPS:ARP:1,2017-01-01T14:54:00Z,28.4330,-82.6670,10.0,1.36,159.38,3.03,'1111122,1111122,1111122' 
COMPS,ioos:station:USF.COMPS:ARP:1,2017-01-01T15:00:00Z,28.4330,-82.6670,10.0,1.86,147.99,5.09,'1111122,1111122,1111122' 
COMPS,ioos:station:USF.COMPS:ARP:1,2017-01-01T15:06:00Z,28.4330,-82.6670,10.0,1.54,150.51,3.52,'1111122,1111122,1111122' 
COMPS,ioos:station:USF.COMPS:ARP:1,2017-01-01T15:12:00Z,28.4330,-82.6670,10.0,1.94,160.87,4.99,'1111122,1111122,1111122' 
COMPS,ioos:station:USF.COMPS:ARP:1,2017-01-01T15:18:00Z,28.4330,-82.6670,10.0,1.8,147.91,3.72,'1111122,1111122,1111122' 
COMPS,ioos:station:USF.COMPS:ARP:1,2017-01-01T15:24:00Z,28.4330,-82.6670,10.0,1.39,132.97,3.72,'1111122,1111122,1111122' 
COMPS,ioos:station:USF.COMPS:ARP:1,2017-01-01T15:30:00Z,28.4330,-82.6670,10.0,1.98,145.87,4.9,'1111122,1111122,1111122' 
COMPS,ioos:station:USF.COMPS:ARP:1,2017-01-01T15:36:00Z,28.4330,-82.6670,10.0,2.3,180.08,4.7,'1111122,1111122,1111122' 
COMPS,ioos:station:USF.COMPS:ARP:1,2017-01-01T15:42:00Z,28.4330,-82.6670,10.0,3.01,160.26,5.19,'1111122,1111122,1111122' 
COMPS,ioos:station:USF.COMPS:ARP:1,2017-01-01T15:48:00Z,28.4330,-82.6670,10.0,2.06,169.8,5.29,'1111122,1111122,1111122' 
COMPS,ioos:station:USF.COMPS:ARP:1,2017-01-01T15:54:00Z,28.4330,-82.6670,10.0,1.75,167.28,5.29,'1111122,1111122,1111122' 
COMPS,ioos:station:USF.COMPS:ARP:1,2017-01-01T16:00:00Z,28.4330,-82.6670,10.0,1.56,168.04,3.52,'1111122,1111122,1111122' 
COMPS,ioos:station:USF.COMPS:ARP:1,2017-01-01T16:06:00Z,28.4330,-82.6670,10.0,1.84,180.25,4.7,'1111122,1111122,1111122' 
COMPS,ioos:station:USF.COMPS:ARP:1,2017-01-01T16:12:00Z,28.4330,-82.6670,10.0,2.74,169.96,4.99,'1111122,1111122,1111122' 
COMPS,ioos:station:USF.COMPS:ARP:1,2017-01-01T16:18:00Z,28.4330,-82.6670,10.0,2.25,161.45,3.72,'1111122,1111122,1111122' 
COMPS,ioos:station:USF.COMPS:ARP:1,2017-01-01T16:24:00Z,28.4330,-82.6670,10.0,2.21,170.66,4.21,'1111122,1111122,1111122' 
COMPS,ioos:station:USF.COMPS:ARP:1,2017-01-01T16:30:00Z,28.4330,-82.6670,10.0,1.95,162.96,6.56,'1111122,1111122,1111122' 
COMPS,ioos:station:USF.COMPS:ARP:1,2017-01-01T16:36:00Z,28.4330,-82.6670,10.0,1.92,186.29,5.97,'1111122,1111122,1111122' 
COMPS,ioos:station:USF.COMPS:ARP:1,2017-01-01T16:42:00Z,28.4330,-82.6670,10.0,1.89,165.38,5.29,'1111122,1111122,1111122' 
COMPS,ioos:station:USF.COMPS:ARP:1,2017-01-01T16:48:00Z,28.4330,-82.6670,10.0,1.88,201.88,4.31,'1111122,1111122,1111122' 
COMPS,ioos:station:USF.COMPS:ARP:1,2017-01-01T16:54:00Z,28.4330,-82.6670,10.0,2.07,193.0,4.21,'1111122,1111122,1111122' 
COMPS,ioos:station:USF.COMPS:ARP:1,2017-01-01T17:00:00Z,28.4330,-82.6670,10.0,2.58,188.26,6.66,'1111122,1111122,1111122' 
COMPS,ioos:station:USF.COMPS:ARP:1,2017-01-01T17:06:00Z,28.4330,-82.6670,10.0,1.25,189.89,3.03,'1111122,1111122,1111122' 
COMPS,ioos:station:USF.COMPS:ARP:1,2017-01-01T17:12:00Z,28.4330,-82.6670,10.0,1.54,166.48,4.41,'1111122,1111122,1111122' 
COMPS,ioos:station:USF.COMPS:ARP:1,2017-01-01T17:18:00Z,28.4330,-82.6670,10.0,1.57,195.1,4.41,'1111122,1111122,1111122' 
COMPS,ioos:station:USF.COMPS:ARP:1,2017-01-01T17:24:00Z,28.4330,-82.6670,10.0,1.87,221.47,4.5,'1111122,1111122,1111122' 
COMPS,ioos:station:USF.COMPS:ARP:1,2017-01-01T17:30:00Z,28.4330,-82.6670,10.0,1.35,190.12,4.31,'1111122,1111122,1111122' 
COMPS,ioos:station:USF.COMPS:ARP:1,2017-01-01T17:36:00Z,28.4330,-82.6670,10.0,1.74,173.5,3.33,'1111122,1111122,1111122' 
COMPS,ioos:station:USF.COMPS:ARP:1,2017-01-01T17:42:00Z,28.4330,-82.6670,10.0,1.41,193.16,3.03,'1111122,1111122,1111122' 
COMPS,ioos:station:USF.COMPS:ARP:1,2017-01-01T17:48:00Z,28.4330,-82.6670,10.0,1.2,174.98,2.84,'1111122,1111122,1111122' 
COMPS,ioos:station:USF.COMPS:ARP:1,2017-01-01T17:54:00Z,28.4330,-82.6670,10.0,2.35,220.89,4.11,'1111122,1111122,1111122' 
COMPS,ioos:station:USF.COMPS:ARP:1,2017-01-01T18:00:00Z,28.4330,-82.6670,10.0,1.7,190.99,3.42,'1111122,1111122,1111122' 
COMPS,ioos:station:USF.COMPS:ARP:1,2017-01-01T18:06:00Z,28.4330,-82.6670,10.0,2.18,145.34,3.72,'1111122,1111122,1111122' 
COMPS,ioos:station:USF.COMPS:ARP:1,2017-01-01T18:12:00Z,28.4330,-82.6670,10.0,1.98,174.64,4.6,'1111122,1111122,1111122' 
COMPS,ioos:station:USF.COMPS:ARP:1,2017-01-01T18:18:00Z,28.4330,-82.6670,10.0,1.87,200.61,3.42,'1111122,1111122,1111122' 
COMPS,ioos:station:USF.COMPS:ARP:1,2017-01-01T18:24:00Z,28.4330,-82.6670,10.0,2.36,228.17,4.21,'1111122,1111122,1111122' 
COMPS,ioos:station:USF.COMPS:ARP:1,2017-01-01T18:30:00Z,28.4330,-82.6670,10.0,1.49,230.01,3.33,'1111122,1111122,1111122' 
COMPS,ioos:station:USF.COMPS:ARP:1,2017-01-01T18:36:00Z,28.4330,-82.6670,10.0,2.42,227.25,4.7,'1111122,1111122,1111122' 
COMPS,ioos:station:USF.COMPS:ARP:1,2017-01-01T18:42:00Z,28.4330,-82.6670,10.0,2.84,233.2,4.8,'1111122,1111122,1111122' 
COMPS,ioos:station:USF.COMPS:ARP:1,2017-01-01T18:48:00Z,28.4330,-82.6670,10.0,2.36,206.96,4.8,'1111122,1111122,1111122' 
COMPS,ioos:station:USF.COMPS:ARP:1,2017-01-01T18:54:00Z,28.4330,-82.6670,10.0,1.9,197.3,4.21,'1111122,1111122,1111122' 
COMPS,ioos:station:USF.COMPS:ARP:1,2017-01-01T19:00:00Z,28.4330,-82.6670,10.0,1.99,165.15,4.99,'1111122,1111122,1111122' 
COMPS,ioos:station:USF.COMPS:ARP:1,2017-01-01T19:06:00Z,28.4330,-82.6670,10.0,2.44,181.11,4.11,'1111122,1111122,1111122' 
COMPS,ioos:station:USF.COMPS:ARP:1,2017-01-01T19:12:00Z,28.4330,-82.6670,10.0,1.15,192.77,3.13,'1111122,1111122,1111122' 
COMPS,ioos:station:USF.COMPS:ARP:1,2017-01-01T19:18:00Z,28.4330,-82.6670,10.0,1.72,152.67,3.72,'1111122,1111122,1111122' 
COMPS,ioos:station:USF.COMPS:ARP:1,2017-01-01T19:24:00Z,28.4330,-82.6670,10.0,2.22,197.89,5.39,'1111122,1111122,1111122' 
COMPS,ioos:station:USF.COMPS:ARP:1,2017-01-01T19:30:00Z,28.4330,-82.6670,10.0,1.55,199.87,3.33,'1111122,1111122,1111122' 